"SCET";"TARGET";"ELECTRON_DENSITY";"ERROR_FLAG";"ELECTRON_DENSITY_ERROR";"FREQ_FCE";"MEASURED_VALUE";"MEASURED_ITEM";"FREQ_PLASMA";"FREQ_UPPER_HYBRID";"FREQ_R_EQUALS_ZERO";"FREQ_L_EQUALS_ZERO";"ORBIT_NUMBER";"SATURN_RADIUS";"SATURN_IAU_LONGITUDE";"SATURN_SLS4_S_LONGITUDE";"SATURN_SLS4_N_LONGITUDE";"SATURN_SLS5_S_LONGITUDE";"SATURN_SLS5_N_LONGITUDE";"SATURN_LOCAL_TIME";"SATURN_KRONOGRAPHIC_LATITUDE";"SATURN_MAGNETIC_LATITUDE";"SATURN_L";"SATURN_L_OFFSET";"SATURN_SOLAR_EQUATORIAL_X";"SATURN_SOLAR_EQUATORIAL_Y";"SATURN_SOLAR_EQUATORIAL_Z";"SATURN_ALTITUDE";"ENCELADUS_ENCOUNTER_NUMBER";"ENCELADUS_RADIUS";"ENCELADUS_COROTATIONAL_X";"ENCELADUS_COROTATIONAL_Y";"ENCELADUS_COROTATIONAL_Z";"ENCELADUS_TRUE_ANOMALY";"ENCELADUS_PERIAPSIS_TIME";"JUPITER_RADIUS";"JUPITER_SYSTEMIII_LONGITUDE";"JUPITER_MAGNETIC_LATITUDE";"JUPITER_MAGNETIC_LOCAL_TIME";"JUPITER_L";"IO_PHASE";"EARTH_RADIUS";"EARTH_MAGNETIC_LATITUDE";"EARTH_LOCAL_TIME";"EARTH_L"
"[UTC]";"[0=Saturn, 1=Enceladus, 2=Jupiter, 3=Earth]";"[cm-3]";"[0=automated, 1=manual]";"[normalized density error]";"[Hz]";"[Hz]";"[0=upper hybrid frequency, 1=plasma frequency cutoff]";"[Hz]";"[Hz]";"[Hz]";"[Hz}";"[0, A, B, C, 3, 4, ... , 292, 293]";"[Rs where 1Rs=60268km]";"[degrees]";"[degrees]";"[degrees]";"[degrees]";"[degrees]";"[hours]";"[degrees]";"[degrees where offset=2293km north]";"[Rs where 1Rs=60268km]";"[Rs where 1Rs=60268km and offset=2293km north]";"[Rs where 1Rs=60268km]";"[Rs where 1Rs=60268km]";"[Rs where 1Rs=60268km]";"[km where ellipsoid a,b=60268km and c=54364km]";"[E0, E1, E2, ... , E21, E22]";"[Renc where 1Renc=252.1km]";"[Renc where 1Renc=252.1km]";"[Renc where 1Renc=252.1km]";"[Renc where 1Renc=252.1km]";"[degrees]";"[UTC]";"[Rj where 1Rj=71492km]";"[degrees]";"[degrees using JRM09 model]";"[hours using JRM09 model]";"[Rj where 1Rj=71492km]";"[degrees]";"[Re where 1Re=6378.1366km]";"[degrees]";"[hours]";"[Re where 1Re=6378.1366km]"
2008-08-11T20:31:13.353Z;1;1.0800e+01;0;     0.136;  8931.805;  30839.250; 0;  29517.490;  30839.250;  34319.320;  25387.514; 80;   4.017;  22.613; 342.494;  19.033; 287.867;  21.886;  22.552;   7.780;   7.242;   4.092;   4.008;  -3.698;   1.473;   0.544;;E04; 147.772;  70.114;  -0.893; 130.073; 212.710;2008-08-11T01:03:36.000;;;;;;;;;;
2008-08-11T20:31:21.353Z;1;1.0800e+01;0;     0.134;  8931.805;  30836.945; 0;  29515.082;  30836.945;  34316.938;  25385.135; 80;   4.017;  22.680; 342.559;  19.100; 287.933;  21.954;  22.552;   7.751;   7.213;   4.091;   4.008;  -3.698;   1.473;   0.542;;E04; 147.213;  69.853;  -0.918; 129.579; 212.734;2008-08-11T01:03:36.000;;;;;;;;;;
2008-08-11T20:31:37.353Z;1;1.0880e+01;0;     0.147;  8931.805;  30941.221; 0;  29624.010;  30941.221;  34424.645;  25492.842; 80;   4.016;  22.814; 342.691;  19.235; 288.064;  22.089;  22.554;   7.692;   7.154;   4.090;   4.007;  -3.698;   1.471;   0.537;;E04; 146.094;  69.329;  -0.969; 128.590; 212.782;2008-08-11T01:03:36.000;;;;;;;;;;
2008-08-11T20:31:45.353Z;1;1.0960e+01;0;     0.137;  8931.805;  31037.463; 0;  29724.518;  31037.463;  34524.035;  25592.229; 80;   4.016;  22.880; 342.756;  19.302; 288.129;  22.157;  22.554;   7.663;   7.125;   4.089;   4.007;  -3.699;   1.471;   0.535;;E04; 145.535;  69.067;  -0.994; 128.095; 212.806;2008-08-11T01:03:36.000;;;;;;;;;;
2008-08-11T20:32:01.353Z;1;1.1280e+01;0;     0.163;  8929.647;  31453.566; 0;  30159.381;  31453.566;  34952.902;  26023.254; 80;   4.016;  23.014; 342.888;  19.436; 288.260;  22.292;  22.555;   7.605;   7.066;   4.087;   4.007;  -3.699;   1.470;   0.531;;E04; 144.416;  68.544;  -1.043; 127.106; 212.855;2008-08-11T01:03:36.000;;;;;;;;;;
2008-08-11T20:32:09.353Z;1;1.1020e+01;0;     0.126;  8929.647;  31120.764; 0;  29812.135;  31120.764;  34609.441;  25679.793; 80;   4.015;  23.081; 342.953;  19.503; 288.325;  22.360;  22.556;   7.575;   7.037;   4.086;   4.006;  -3.699;   1.469;   0.529;;E04; 143.857;  68.282;  -1.067; 126.612; 212.879;2008-08-11T01:03:36.000;;;;;;;;;;
2008-08-11T20:32:25.353Z;1;1.1420e+01;0;     0.141;  8929.647;  31629.965; 0;  30343.303;  31629.965;  35134.852;  26205.205; 80;   4.015;  23.214; 343.085;  19.638; 288.456;  22.495;  22.557;   7.517;   6.978;   4.085;   4.006;  -3.700;   1.468;   0.525;;E04; 142.738;  67.758;  -1.115; 125.623; 212.927;2008-08-11T01:03:36.000;;;;;;;;;;
2008-08-11T20:32:33.353Z;1;1.1140e+01;0;     0.128;  8929.647;  31276.127; 0;  29974.281;  31276.127;  34769.809;  25840.162; 80;   4.015;  23.281; 343.150;  19.705; 288.522;  22.563;  22.557;   7.487;   6.949;   4.084;   4.006;  -3.700;   1.468;   0.523;;E04; 142.179;  67.496;  -1.139; 125.128; 212.951;2008-08-11T01:03:36.000;;;;;;;;;;
2008-08-11T20:32:49.353Z;1;1.1530e+01;0;     0.136;  8929.647;  31770.275; 0;  30489.535;  31770.275;  35279.535;  26349.887; 80;   4.014;  23.415; 343.282;  19.839; 288.652;  22.699;  22.559;   7.429;   6.890;   4.082;   4.005;  -3.700;   1.467;   0.519;;E04; 141.060;  66.972;  -1.185; 124.139; 212.999;2008-08-11T01:03:36.000;;;;;;;;;;
2008-08-11T20:32:57.352Z;1;1.1150e+01;0;     0.118;  8929.647;  31290.268; 0;  29989.035;  31290.268;  34784.402;  25854.756; 80;   4.014;  23.481; 343.347;  19.906; 288.718;  22.766;  22.559;   7.400;   6.860;   4.082;   4.005;  -3.701;   1.466;   0.517;;E04; 140.500;  66.710;  -1.208; 123.644; 213.023;2008-08-11T01:03:36.000;;;;;;;;;;
2008-08-11T20:33:13.352Z;1;1.1540e+01;0;     0.134;  8927.353;  31790.533; 0;  30511.316;  31790.533;  35299.773;  26372.420; 80;   4.013;  23.615; 343.479;  20.041; 288.848;  22.902;  22.560;   7.341;   6.802;   4.080;   4.005;  -3.701;   1.465;   0.513;;E04; 139.381;  66.186;  -1.253; 122.655; 213.072;2008-08-11T01:03:36.000;;;;;;;;;;
2008-08-11T20:33:21.352Z;1;1.1670e+01;0;     0.126;  8927.353;  31949.369; 0;  30676.775;  31949.369;  35463.500;  26536.146; 80;   4.013;  23.682; 343.544;  20.108; 288.913;  22.969;  22.561;   7.312;   6.772;   4.079;   4.004;  -3.701;   1.465;   0.511;;E04; 138.821;  65.924;  -1.276; 122.160; 213.096;2008-08-11T01:03:36.000;;;;;;;;;;
2008-08-11T20:33:37.352Z;1;1.1680e+01;0;     0.126;  8927.353;  31961.002; 0;  30688.891;  31961.002;  35475.488;  26548.135; 80;   4.013;  23.815; 343.676;  20.242; 289.044;  23.105;  22.562;   7.253;   6.713;   4.078;   4.004;  -3.702;   1.463;   0.506;;E04; 137.702;  65.400;  -1.320; 121.170; 213.144;2008-08-11T01:03:36.000;;;;;;;;;;
2008-08-11T20:33:45.352Z;1;1.1750e+01;0;     0.128;  8927.353;  32047.145; 0;  30778.594;  32047.145;  35564.258;  26636.906; 80;   4.012;  23.882; 343.741;  20.309; 289.109;  23.172;  22.562;   7.224;   6.684;   4.077;   4.004;  -3.702;   1.463;   0.504;;E04; 137.142;  65.138;  -1.341; 120.676; 213.168;2008-08-11T01:03:36.000;;;;;;;;;;
2008-08-11T20:34:01.352Z;1;1.1640e+01;0;     0.103;  8925.393;  31916.316; 0;  30642.922;  31916.316;  35428.875;  26503.484; 80;   4.012;  24.015; 343.873;  20.444; 289.239;  23.308;  22.564;   7.165;   6.625;   4.075;   4.003;  -3.702;   1.462;   0.500;;E04; 136.023;  64.614;  -1.384; 119.686; 213.216;2008-08-11T01:03:36.000;;;;;;;;;;
2008-08-11T20:34:09.352Z;1;1.1730e+01;0;     0.124;  8925.393;  32022.441; 0;  30753.441;  32022.441;  35538.246;  26612.854; 80;   4.012;  24.082; 343.938;  20.511; 289.305;  23.376;  22.564;   7.136;   6.596;   4.074;   4.003;  -3.703;   1.461;   0.498;;E04; 135.463;  64.351;  -1.405; 119.191; 213.241;2008-08-11T01:03:36.000;;;;;;;;;;
2008-08-11T20:34:25.352Z;1;1.1880e+01;0;     0.125;  8925.393;  32216.871; 0;  30955.842;  32216.871;  35738.562;  26813.170; 80;   4.011;  24.216; 344.070;  20.645; 289.435;  23.511;  22.565;   7.077;   6.537;   4.073;   4.003;  -3.703;   1.460;   0.494;;E04; 134.344;  63.827;  -1.447; 118.201; 213.289;2008-08-11T01:03:36.000;;;;;;;;;;
2008-08-11T20:34:33.352Z;1;1.2050e+01;0;     0.127;  8925.393;  32427.736; 0;  31175.238;  32427.736;  35955.730;  27030.336; 80;   4.011;  24.283; 344.135;  20.712; 289.500;  23.579;  22.566;   7.047;   6.508;   4.072;   4.002;  -3.703;   1.460;   0.492;;E04; 133.784;  63.565;  -1.467; 117.707; 213.313;2008-08-11T01:03:36.000;;;;;;;;;;
2008-08-11T20:34:49.352Z;1;1.2080e+01;0;     0.130;  8925.393;  32461.348; 0;  31210.197;  32461.348;  35990.336;  27064.945; 80;   4.010;  24.416; 344.267;  20.847; 289.630;  23.714;  22.567;   6.989;   6.449;   4.071;   4.002;  -3.704;   1.459;   0.488;;E04; 132.664;  63.040;  -1.507; 116.717; 213.361;2008-08-11T01:03:36.000;;;;;;;;;;
2008-08-11T20:34:57.352Z;1;1.2560e+01;0;     0.140;  8925.393;  33058.699; 0;  31831.037;  33058.699;  36605.047;  27679.652; 80;   4.010;  24.483; 344.333;  20.914; 289.695;  23.782;  22.567;   6.959;   6.419;   4.070;   4.002;  -3.704;   1.458;   0.486;;E04; 132.104;  62.778;  -1.527; 116.222; 213.385;2008-08-11T01:03:36.000;;;;;;;;;;
2008-08-11T20:35:13.352Z;1;1.2840e+01;0;     0.135;  8923.684;  33389.449; 0;  32174.885;  33389.449;  36944.625;  28020.941; 80;   4.010;  24.616; 344.464;  21.048; 289.825;  23.917;  22.568;   6.901;   6.360;   4.068;   4.001;  -3.704;   1.457;   0.482;;E04; 130.984;  62.254;  -1.566; 115.232; 213.434;2008-08-11T01:03:36.000;;;;;;;;;;
2008-08-11T20:35:21.351Z;1;1.2850e+01;0;     0.140;  8923.684;  33401.301; 0;  32187.184;  33401.301;  36956.809;  28033.123; 80;   4.009;  24.683; 344.530;  21.115; 289.890;  23.985;  22.569;   6.871;   6.331;   4.068;   4.001;  -3.705;   1.457;   0.479;;E04; 130.424;  61.991;  -1.585; 114.737; 213.458;2008-08-11T01:03:36.000;;;;;;;;;;
2008-08-11T20:35:37.351Z;1;1.3030e+01;0;     0.130;  8923.684;  33625.719; 0;  32420.006;  33625.719;  37187.441;  28263.758; 80;   4.009;  24.817; 344.661;  21.250; 290.020;  24.120;  22.570;   6.812;   6.272;   4.066;   4.000;  -3.705;   1.455;   0.475;;E04; 129.305;  61.467;  -1.623; 113.747; 213.506;2008-08-11T01:03:36.000;;;;;;;;;;
2008-08-11T20:35:45.351Z;1;1.3080e+01;0;     0.138;  8923.684;  33679.816; 0;  32476.113;  33679.816;  37243.023;  28319.340; 80;   4.009;  24.883; 344.727;  21.317; 290.085;  24.188;  22.571;   6.783;   6.243;   4.065;   4.000;  -3.705;   1.455;   0.473;;E04; 128.744;  61.204;  -1.641; 113.251; 213.530;2008-08-11T01:03:36.000;;;;;;;;;;
2008-08-11T20:36:01.351Z;1;1.3150e+01;0;     0.144;  8921.893;  33766.848; 0;  32566.852;  33766.848;  37331.902;  28410.012; 80;   4.008;  25.017; 344.858;  21.451; 290.215;  24.323;  22.572;   6.724;   6.184;   4.064;   4.000;  -3.706;   1.454;   0.469;;E04; 127.624;  60.680;  -1.677; 112.261; 213.578;2008-08-11T01:03:36.000;;;;;;;;;;
2008-08-11T20:36:09.351Z;1;1.3320e+01;0;     0.143;  8921.893;  33971.426; 0;  32778.922;  33971.426;  37542.023;  28620.131; 80;   4.008;  25.084; 344.924;  21.518; 290.280;  24.391;  22.572;   6.695;   6.154;   4.063;   4.000;  -3.706;   1.453;   0.467;;E04; 127.064;  60.417;  -1.695; 111.766; 213.603;2008-08-11T01:03:36.000;;;;;;;;;;
2008-08-11T20:36:25.351Z;1;1.4060e+01;0;     0.188;  8921.893;  34834.254; 0;  33672.320;  34834.254;  38427.477;  29505.584; 80;   4.007;  25.217; 345.055;  21.653; 290.409;  24.526;  22.573;   6.636;   6.095;   4.062;   3.999;  -3.706;   1.452;   0.463;;E04; 125.944;  59.892;  -1.730; 110.776; 213.651;2008-08-11T01:03:36.000;;;;;;;;;;
2008-08-11T20:36:33.351Z;1;1.4120e+01;0;     0.170;  8921.893;  34902.441; 0;  33742.855;  34902.441;  38497.402;  29575.510; 80;   4.007;  25.284; 345.121;  21.720; 290.474;  24.594;  22.574;   6.607;   6.066;   4.061;   3.999;  -3.707;   1.452;   0.461;;E04; 125.384;  59.630;  -1.747; 110.281; 213.675;2008-08-11T01:03:36.000;;;;;;;;;;
2008-08-11T20:36:49.351Z;1;1.3780e+01;0;     0.161;  8921.893;  34507.016; 0;  33333.676;  34507.016;  38091.797;  29169.902; 80;   4.007;  25.418; 345.252;  21.854; 290.604;  24.730;  22.575;   6.548;   6.007;   4.060;   3.998;  -3.707;   1.451;   0.457;;E04; 124.264;  59.105;  -1.781; 109.290; 213.723;2008-08-11T01:03:36.000;;;;;;;;;;
2008-08-11T20:37:13.351Z;1;1.4760e+01;0;     0.154;  8920.353;  35635.164; 0;  34500.613;  35635.164;  39247.895;  30327.543; 80;   4.006;  25.618; 345.449;  22.056; 290.798;  24.933;  22.577;   6.459;   5.918;   4.057;   3.998;  -3.708;   1.449;   0.450;;E04; 122.583;  58.318;  -1.830; 107.804; 213.796;2008-08-11T01:03:36.000;;;;;;;;;;
2008-08-11T20:37:21.351Z;1;1.4590e+01;0;     0.164;  8920.353;  35447.152; 0;  34306.383;  35447.152;  39055.277;  30134.926; 80;   4.006;  25.685; 345.515;  22.123; 290.863;  25.000;  22.577;   6.430;   5.889;   4.057;   3.998;  -3.708;   1.448;   0.448;;E04; 122.023;  58.055;  -1.846; 107.309; 213.820;2008-08-11T01:03:36.000;;;;;;;;;;
2008-08-11T20:37:37.351Z;1;1.4770e+01;0;     0.150;  8920.353;  35649.164; 0;  34515.070;  35649.164;  39262.234;  30341.885; 80;   4.005;  25.818; 345.646;  22.257; 290.992;  25.136;  22.578;   6.371;   5.830;   4.055;   3.997;  -3.708;   1.447;   0.444;;E04; 120.902;  57.530;  -1.877; 106.318; 213.868;2008-08-11T01:03:36.000;;;;;;;;;;
2008-08-11T20:37:45.350Z;1;1.4910e+01;0;     0.176;  8920.353;  35806.844; 0;  34677.910;  35806.844;  39423.738;  30503.385; 80;   4.005;  25.885; 345.712;  22.324; 291.057;  25.203;  22.579;   6.342;   5.800;   4.055;   3.997;  -3.708;   1.447;   0.442;;E04; 120.342;  57.267;  -1.892; 105.823; 213.892;2008-08-11T01:03:36.000;;;;;;;;;;
2008-08-11T20:38:01.350Z;1;1.6240e+01;0;     0.206;  8919.063;  37268.871; 0;  36185.895;  37268.871;  40919.188;  32000.123; 80;   4.005;  26.019; 345.843;  22.458; 291.186;  25.339;  22.580;   6.283;   5.741;   4.053;   3.997;  -3.709;   1.446;   0.438;;E04; 119.221;  56.742;  -1.922; 104.832; 213.940;2008-08-11T01:03:36.000;;;;;;;;;;
2008-08-11T20:38:09.350Z;1;1.6200e+01;0;     0.171;  8919.063;  37232.676; 0;  36148.617;  37232.676;  40882.188;  31963.125; 80;   4.004;  26.085; 345.909;  22.526; 291.251;  25.407;  22.581;   6.253;   5.712;   4.052;   3.996;  -3.709;   1.445;   0.436;;E04; 118.661;  56.480;  -1.937; 104.337; 213.964;2008-08-11T01:03:36.000;;;;;;;;;;
2008-08-11T20:38:25.350Z;1;1.5670e+01;0;     0.158;  8919.063;  36651.836; 0;  35550.070;  36651.836;  40288.219;  31369.154; 80;   4.004;  26.219; 346.040;  22.660; 291.380;  25.542;  22.582;   6.194;   5.653;   4.051;   3.996;  -3.709;   1.444;   0.432;;E04; 117.540;  55.954;  -1.965; 103.346; 214.013;2008-08-11T01:03:36.000;;;;;;;;;;
2008-08-11T20:38:33.350Z;1;1.5780e+01;0;     0.153;  8919.063;  36773.281; 0;  35675.266;  36773.281;  40412.445;  31493.381; 80;   4.004;  26.286; 346.106;  22.727; 291.445;  25.610;  22.582;   6.165;   5.623;   4.050;   3.996;  -3.710;   1.444;   0.430;;E04; 116.979;  55.692;  -1.979; 102.850; 214.037;2008-08-11T01:03:36.000;;;;;;;;;;
2008-08-11T20:38:49.350Z;1;1.5860e+01;0;     0.142;  8919.063;  36858.602; 0;  35763.203;  36858.602;  40499.707;  31580.643; 80;   4.003;  26.419; 346.237;  22.861; 291.574;  25.745;  22.583;   6.106;   5.564;   4.049;   3.995;  -3.710;   1.443;   0.426;;E04; 115.858;  55.167;  -2.006; 101.859; 214.085;2008-08-11T01:03:36.000;;;;;;;;;;
2008-08-11T20:38:57.350Z;1;1.6040e+01;0;     0.141;  8919.063;  37056.422; 0;  35967.051;  37056.422;  40701.996;  31782.932; 80;   4.003;  26.486; 346.303;  22.929; 291.638;  25.813;  22.584;   6.077;   5.535;   4.048;   3.995;  -3.710;   1.442;   0.424;;E04; 115.298;  54.904;  -2.020; 101.364; 214.109;2008-08-11T01:03:36.000;;;;;;;;;;
2008-08-11T20:40:49.349Z;1;1.8100e+01;0;     0.109;  8916.151;  39231.086; 0;  38204.453;  39231.086;  42921.758;  34005.605; 80;   4.000;  27.421; 347.222;  23.869; 292.549;  26.756;  22.592;   5.663;   5.121;   4.039;   3.992;  -3.713;   1.434;   0.395;;E04; 107.449;  51.226;  -2.183;  94.424; 214.447;2008-08-11T01:03:36.000;;;;;;;;;;
2008-08-11T20:40:57.349Z;1;1.8300e+01;0;     0.128;  8916.151;  39438.070; 0;  38416.969;  39438.070;  43132.848;  34216.695; 80;   4.000;  27.488; 347.288;  23.936; 292.614;  26.823;  22.592;   5.634;   5.091;   4.038;   3.992;  -3.713;   1.434;   0.392;;E04; 106.888;  50.963;  -2.193;  93.929; 214.471;2008-08-11T01:03:36.000;;;;;;;;;;
2008-08-11T20:41:13.349Z;1;1.9100e+01;0;     0.112;  8916.040;  40247.980; 0;  39247.984;  40247.980;  43958.375;  35042.336; 80;   3.999;  27.621; 347.419;  24.070; 292.746;  26.957;  22.593;   5.575;   5.032;   4.037;   3.991;  -3.713;   1.433;   0.388;;E04; 105.766;  50.437;  -2.212;  92.937; 214.519;2008-08-11T01:03:36.000;;;;;;;;;;
2008-08-11T20:41:21.349Z;1;1.9050e+01;0;     0.108;  8916.040;  40193.777; 0;  39192.398;  40193.777;  43903.145;  34987.105; 80;   3.999;  27.688; 347.485;  24.138; 292.812;  27.024;  22.594;   5.545;   5.002;   4.037;   3.991;  -3.714;   1.432;   0.386;;E04; 105.205;  50.174;  -2.222;  92.441; 214.544;2008-08-11T01:03:36.000;;;;;;;;;;
2008-08-11T20:41:37.349Z;1;1.9350e+01;0;     0.098;  8916.040;  40499.281; 0;  39505.645;  40499.281;  44214.402;  35298.363; 80;   3.998;  27.821; 347.616;  24.272; 292.944;  27.157;  22.595;   5.486;   4.943;   4.035;   3.991;  -3.714;   1.431;   0.382;;E04; 104.083;  49.649;  -2.240;  91.449; 214.592;2008-08-11T01:03:36.000;;;;;;;;;;
2008-08-11T20:41:45.349Z;1;1.9510e+01;0;     0.105;  8916.040;  40654.586; 0;  39664.840;  40654.586;  44372.598;  35456.559; 80;   3.998;  27.888; 347.682;  24.339; 293.010;  27.224;  22.596;   5.457;   4.914;   4.035;   3.991;  -3.714;   1.431;   0.380;;E04; 103.522;  49.386;  -2.248;  90.953; 214.616;2008-08-11T01:03:36.000;;;;;;;;;;
2008-08-11T20:42:01.349Z;1;1.9750e+01;0;     0.106;  8916.488;  40893.941; 0;  39910.031;  40893.941;  44616.516;  35700.027; 80;   3.998;  28.022; 347.813;  24.473; 293.142;  27.358;  22.597;   5.398;   4.854;   4.033;   3.990;  -3.715;   1.429;   0.376;;E04; 102.401;  48.860;  -2.265;  89.962; 214.664;2008-08-11T01:03:36.000;;;;;;;;;;
2008-08-11T20:42:09.349Z;1;1.9840e+01;0;     0.109;  8916.488;  40984.859; 0;  40003.188;  40984.859;  44709.094;  35792.605; 80;   3.998;  28.088; 347.879;  24.541; 293.208;  27.424;  22.597;   5.368;   4.825;   4.033;   3.990;  -3.715;   1.429;   0.374;;E04; 101.840;  48.597;  -2.273;  89.466; 214.688;2008-08-11T01:03:36.000;;;;;;;;;;
2008-08-11T20:42:25.348Z;1;1.9920e+01;0;     0.103;  8916.488;  41061.699; 0;  40081.910;  41061.699;  44787.332;  35870.844; 80;   3.997;  28.222; 348.010;  24.675; 293.340;  27.558;  22.598;   5.309;   4.765;   4.032;   3.990;  -3.715;   1.428;   0.370;;E04; 100.718;  48.071;  -2.289;  88.474; 214.737;2008-08-11T01:03:36.000;;;;;;;;;;
2008-08-11T20:42:33.348Z;1;1.9710e+01;0;     0.103;  8916.488;  40854.688; 0;  39869.809;  40854.688;  44576.539;  35660.051; 80;   3.997;  28.289; 348.076;  24.742; 293.406;  27.625;  22.599;   5.279;   4.736;   4.031;   3.989;  -3.715;   1.427;   0.368;;E04; 100.157;  47.809;  -2.296;  87.978; 214.761;2008-08-11T01:03:36.000;;;;;;;;;;
2008-08-11T20:42:49.348Z;1;1.9780e+01;0;     0.101;  8916.488;  40918.613; 0;  39935.312;  40918.613;  44641.637;  35725.148; 80;   3.996;  28.422; 348.207;  24.876; 293.538;  27.758;  22.600;   5.220;   4.677;   4.030;   3.989;  -3.716;   1.426;   0.363;;E04;  99.035;  47.283;  -2.310;  86.986; 214.809;2008-08-11T01:03:36.000;;;;;;;;;;
2008-08-11T20:42:57.348Z;1;1.9890e+01;0;     0.103;  8916.488;  41030.129; 0;  40049.566;  41030.129;  44755.188;  35838.699; 80;   3.996;  28.489; 348.273;  24.944; 293.604;  27.825;  22.601;   5.191;   4.647;   4.029;   3.989;  -3.716;   1.426;   0.361;;E04;  98.474;  47.020;  -2.317;  86.490; 214.833;2008-08-11T01:03:36.000;;;;;;;;;;
2008-08-11T20:43:13.348Z;1;1.9970e+01;0;     0.105;  8917.355;  41103.891; 0;  40124.938;  41103.891;  44830.578;  35913.223; 80;   3.996;  28.623; 348.404;  25.078; 293.736;  27.958;  22.602;   5.131;   4.588;   4.028;   3.988;  -3.716;   1.425;   0.357;;E04;  97.351;  46.494;  -2.330;  85.498; 214.881;2008-08-11T01:03:36.000;;;;;;;;;;
2008-08-11T20:43:21.348Z;1;2.0320e+01;0;     0.112;  8917.355;  41449.297; 0;  40478.699;  41449.297;  45182.195;  36264.840; 80;   3.996;  28.689; 348.470;  25.145; 293.802;  28.024;  22.602;   5.102;   4.558;   4.027;   3.988;  -3.716;   1.424;   0.355;;E04;  96.790;  46.231;  -2.336;  85.002; 214.906;2008-08-11T01:03:36.000;;;;;;;;;;
2008-08-11T20:43:37.348Z;1;2.1090e+01;0;     0.138;  8917.355;  42194.461; 0;  41241.402;  42194.461;  45940.398;  37023.043; 80;   3.995;  28.823; 348.601;  25.279; 293.934;  28.158;  22.603;   5.043;   4.499;   4.026;   3.988;  -3.717;   1.423;   0.351;;E04;  95.668;  45.705;  -2.348;  84.009; 214.954;2008-08-11T01:03:36.000;;;;;;;;;;
2008-08-11T20:43:45.348Z;1;2.1150e+01;0;     0.116;  8917.355;  42252.539; 0;  41300.820;  42252.539;  45999.473;  37082.117; 80;   3.995;  28.890; 348.667;  25.346; 294.001;  28.224;  22.604;   5.013;   4.469;   4.026;   3.988;  -3.717;   1.422;   0.349;;E04;  95.107;  45.442;  -2.353;  83.513; 214.978;2008-08-11T01:03:36.000;;;;;;;;;;
2008-08-11T20:44:01.348Z;1;2.1370e+01;0;     0.102;  8918.364;  42462.879; 0;  41515.766;  42462.879;  46213.742;  37295.375; 80;   3.994;  29.023; 348.798;  25.481; 294.133;  28.357;  22.605;   4.954;   4.410;   4.024;   3.987;  -3.717;   1.421;   0.345;;E04;  93.984;  44.916;  -2.364;  82.521; 215.026;2008-08-11T01:03:36.000;;;;;;;;;;
2008-08-11T20:44:09.348Z;1;2.1680e+01;0;     0.123;  8918.364;  42754.832; 0;  41814.332;  42754.832;  46510.613;  37592.246; 80;   3.994;  29.090; 348.864;  25.548; 294.199;  28.424;  22.606;   4.924;   4.380;   4.024;   3.987;  -3.717;   1.421;   0.343;;E04;  93.423;  44.653;  -2.368;  82.025; 215.050;2008-08-11T01:03:36.000;;;;;;;;;;
2008-08-11T20:44:25.348Z;1;2.2030e+01;0;     0.117;  8918.364;  43085.711; 0;  42152.594;  43085.711;  46846.980;  37928.617; 80;   3.994;  29.224; 348.995;  25.682; 294.332;  28.556;  22.607;   4.865;   4.321;   4.023;   3.987;  -3.718;   1.420;   0.338;;E04;  92.301;  44.127;  -2.377;  81.032; 215.099;2008-08-11T01:03:36.000;;;;;;;;;;
2008-08-11T20:44:33.348Z;1;2.2250e+01;0;     0.104;  8918.364;  43284.816; 0;  42356.086;  43284.816;  47049.352;  38130.984; 80;   3.994;  29.290; 349.061;  25.749; 294.398;  28.623;  22.607;   4.835;   4.291;   4.022;   3.986;  -3.718;   1.419;   0.336;;E04;  91.740;  43.864;  -2.382;  80.536; 215.123;2008-08-11T01:03:36.000;;;;;;;;;;
2008-08-11T20:44:49.347Z;1;2.2190e+01;0;     0.107;  8918.364;  43232.188; 0;  42302.305;  43232.188;  46995.863;  38077.496; 80;   3.993;  29.424; 349.192;  25.884; 294.531;  28.756;  22.608;   4.776;   4.232;   4.021;   3.986;  -3.718;   1.418;   0.332;;E04;  90.617;  43.339;  -2.389;  79.544; 215.171;2008-08-11T01:03:36.000;;;;;;;;;;
2008-08-11T20:44:57.347Z;1;2.3330e+01;0;     0.137;  8918.364;  44279.039; 0;  43371.605;  44279.039;  48059.414;  39141.051; 80;   3.993;  29.491; 349.258;  25.951; 294.597;  28.822;  22.609;   4.746;   4.202;   4.021;   3.986;  -3.718;   1.417;   0.330;;E04;  90.056;  43.076;  -2.393;  79.048; 215.195;2008-08-11T01:03:36.000;;;;;;;;;;
2008-08-11T20:45:13.347Z;1;2.3590e+01;0;     0.117;  8919.849;  44516.785; 0;  43613.992;  44516.785;  48301.359;  39381.512; 80;   3.993;  29.624; 349.389;  26.085; 294.730;  28.955;  22.610;   4.687;   4.143;   4.019;   3.986;  -3.719;   1.416;   0.326;;E04;  88.933;  42.550;  -2.399;  78.055; 215.243;2008-08-11T01:03:36.000;;;;;;;;;;
2008-08-11T20:45:21.347Z;1;2.3710e+01;0;     0.123;  8919.849;  44625.406; 0;  43724.859;  44625.406;  48411.648;  39491.801; 80;   3.992;  29.691; 349.455;  26.152; 294.796;  29.021;  22.611;   4.657;   4.113;   4.019;   3.985;  -3.719;   1.416;   0.324;;E04;  88.372;  42.287;  -2.402;  77.559; 215.268;2008-08-11T01:03:36.000;;;;;;;;;;
2008-08-11T20:45:37.347Z;1;2.4060e+01;0;     0.117;  8919.849;  44938.434; 0;  44044.285;  44938.434;  48729.441;  39809.594; 80;   3.992;  29.824; 349.586;  26.287; 294.929;  29.154;  22.612;   4.598;   4.054;   4.018;   3.985;  -3.719;   1.415;   0.320;;E04;  87.249;  41.761;  -2.407;  76.566; 215.316;2008-08-11T01:03:36.000;;;;;;;;;;